Regional Weather Roundup
Issued by NWS Boston, MA

Current Version | Previous Version | Text Only | Print | Product List | Glossary On
Versions: 1 2 3 4 5 6 7 8 9 10 11 12 13 14 15 16 17 18 19 20 21 22 23 24 25 26 27
000
ASUS41 KBOX 271510
RWRBOX

REGIONAL WEATHER ROUNDUP
NATIONAL WEATHER SERVICE TAUNTON MA
1100 AM EDT FRI MAY 27 2016

NOTE:  "FAIR" INDICATES FEW OR NO CLOUDS BELOW 12,000 FEET WITH NO
SIGNIFICANT WEATHER AND/OR OBSTRUCTIONS TO VISIBILITY.  THE FOLLOWING
OBSERVATION LOCATIONS DO NOT REPORT PRESENT WEATHER...PROVINCETOWN...
SMITHFIELD...BLOCK ISLAND...KEENE...AND OXFORD.

MAZALL-271600-
EASTERN MASSACHUSETTS

CITY           SKY/WX    TMP DP  RH WIND       PRES   REMARKS
BOSTON         PTSUNNY   68  58  70 E8        30.11S
BEVERLY        SUNNY     70  58  65 NE8       30.10F
LAWRENCE       SUNNY     71  57  61 VRB3      30.13S
BEDFORD        MOSUNNY   74  59  59 VRB5      30.09F
BLUE HILL        N/A     75  59  57 S6        30.10F
NORWOOD        SUNNY     77  61  57 E3        30.09F
MARSHFIELD     MOSUNNY   66  59  77 NE7       30.11R
PLYMOUTH       SUNNY     74  61  63 S7        30.11S
TAUNTON        SUNNY     80  61  52 CALM      30.10R
NEW BEDFORD    SUNNY     71  61  70 E9        30.10S
$$

MAZALL-271600-
CAPE COD AND THE ISLANDS

CITY           SKY/WX    TMP DP  RH WIND       PRES   REMARKS
FALMOUTH       SUNNY     73  61  64 S7        30.11S
HYANNIS        MOSUNNY   63  58  83 S9        30.11S
CHATHAM        CLOUDY    64  59  83 SW7       30.14S
PROVINCETOWN   SUNNY     71  61  70 S6        30.12F
NANTUCKET      SUNNY     64  57  78 S14       30.13S
MARTHAS VNYRD  SUNNY     68  58  70 SW13      30.13R
$$

MAZALL-271600-
CENTRAL AND WESTERN MASSACHUSETTS

CITY           SKY/WX    TMP DP  RH WIND       PRES   REMARKS
WORCESTER      MOSUNNY   71  58  63 E6        30.12R
FITCHBURG      SUNNY     73  57  57 N6        30.11F
ORANGE         CLOUDY    79  58  48 VRB6      30.08S
SPRINGFIELD    PTSUNNY   81  59  47 S5        30.05F
WESTFIELD      PTSUNNY   78  59  51 CALM      30.06S
NORTH ADAMS    PTSUNNY   80  59  48 E6        30.04F
PITTSFIELD     CLOUDY    81  62  52 CALM      30.06F
$$

RIZALL-271600-
RHODE ISLAND

CITY           SKY/WX    TMP DP  RH WIND       PRES   REMARKS
PROVIDENCE     MOSUNNY   72  59  63 S7        30.11R
NEWPORT        SUNNY     67  59  75 S7        30.11R
BLOCK ISLAND   MOSUNNY   65  59  81 SW16      30.12R
SMITHFIELD     SUNNY    N/A N/A N/A SE5       30.09S
WESTERLY       CLOUDY    68  57  68 VRB6      30.12R
$$

CTZALL-271600-
CONNECTICUT

CITY           SKY/WX    TMP DP  RH WIND       PRES   REMARKS
BRADLEY INTL   PTSUNNY   80  61  52 S7        30.05F
HARTFORD       CLOUDY    80  63  55 S6        30.06S
BRIDGEPORT     MOSUNNY   68  60  75 E7        30.08S
DANBURY        CLOUDY    79  64  60 MISG      30.09S
GROTON         CLOUDY    70  63  78 SE7       30.09S
NEW HAVEN      CLOUDY    73  62  68 E3        30.08S
CHESTER        FAIR      77  63  61 VRB3      30.09S
MERIDEN        CLOUDY    77  62  59 S7        30.07S
WILLIMANTIC    MOSUNNY   80  61  52 VRB6      30.08F
OXFORD         MOSUNNY   75  63  64 SW5       30.10S
$$

MEZ002-015-021-024-NHZ003-005-008-011-012-014-VTZ005-008-271600-
NORTHERN NEW ENGLAND

CITY           SKY/WX    TMP DP  RH WIND       PRES   REMARKS
PORTLAND ME    CLOUDY    57  52  83 E12       30.16F
BANGOR ME      CLOUDY    56  49  77 SE6       30.20S
CONCORD NH     CLOUDY    67  54  63 MISG      30.12F
MANCHESTER NH  PTSUNNY   68  54  60 CALM      30.10F
NASHUA NH      SUNNY     70  57  63 E5        30.11F
PORTSMOUTH NH  PTSUNNY   65  55  69 VRB5      30.12S
JAFFREY NH     MOSUNNY   71  58  63 VRB3      30.11F
KEENE NH       SUNNY     77  59  53 S3        30.09S
BURLINGTON VT  PTSUNNY   83  59  44 SW10      29.99S
MT. WASHINGTON CLOUDY    54  50  87 SW29        N/A
$$

NYZ052-076-271600-
EASTERN NEW YORK

CITY           SKY/WX    TMP DP  RH WIND       PRES   REMARKS
ALBANY         PTSUNNY   78  60  53 S7        30.03S
NEW YORK CITY  MOSUNNY   82  67  60 SE9       30.05F
$$

ANZALL-271600-
MARINE OBSERVATIONS

STATION/POSITION TIME  TEMP    WIND        PRES    VSBY  WAVE
                       AIR SEA DIR/SP/G                  HT/PER
                 (UTC) (F)     (DEG/KT/KT) (MB)    (MI)  (FT/S)
BOSTON BUOY      1450   57 58   30/  4/  4 1020.0R         2/ 7
BUZZARDS BAY     1400   58     190/  9/ 10 1020.1S
NANTUCKET SOUND  1450   59 56  220/ 12/ 12 1020.0R         1
MASS BAY-STELLWA 1404   56 55                N/A     3/16  2/ 4
ISLE OF SHOALS   1500   55      30/  8/  9 1019.9F
S OF BLOCK IS    1425      55                N/A           3/ 8
$$

......................KEY.........................
  SKY/WX - SKY CONDITION/PRESENT WEATHER
  TMP    - TEMPERATURE IN FAHRENHEIT
  DWPT   - DEWPOINT IN FAHRENHEIT
  RH     - RELATIVE HUMIDITY IN PERCENT
  WIND   - DIRECTION AND SPEED IN MPH
  PRES   - MEAN SEA LEVEL PRESSURE IN INCHES OF HG
  WCI    - WIND CHILL INDEX
  VSB    - VISIBILITY IN MILES
  HX     - HEAT INDEX
  TC     - TEMPERATURE IN CELSIUS
  VRB    - VARIABLE WIND DIRECTION
  N/A    - NOT AVAILABLE




USA.gov is the U.S. government's official web portal to all federal, state and local government web resources and services.